星链-4560 (STARLINK-4560 )

导读

STARLINK-4560是美国于2022年8月31日发射的星链卫星,隶属于太空探索技术公司SpaceX打造的星链卫星互联网星座项目。星链星座旨在为全球用户提供低延迟、高速率的互联网覆盖服务,该卫星入轨后承担了部分全球通信网络节点任务,是星链规模化组网进程中的组成单元。

基本信息
目录编号:
53691
目录名称:
STARLINK-4560
国际标识:
2022-105AV
轨道中心:
EARTH
卫星名称:
星链-4560
卫星全名:
星链-4560 (STARLINK-4560 )
卫星状态:
在轨 (已飞行1465 天)
发射日期:
2022-08-31 UTC
国别 :
美国 (US)
星等 :
--
轨道信息
数据来源 国际轨道数据
星历时间: 2026-09-04T02:48:32+0800
8小时前
查看轨道信息
半长轴: 6843.703km
偏心率: 0.0001718
轨道倾角: 97.285°
近地点辐角 89.923°
升交点赤经 123.780°
平近点角 270.221°
近地点: 464.39km
远地点: 466.742km
周期: 93.907分钟
每日圈数: 15.334375
详细信息
固有亮度:
5
最大亮度:
2.5
卫星平台:
Starlink v1.5
覆盖范围:
全球
运营商:
太空探索技术公司
运营商所在国:
美国
制造商(研发单位):
太空探索技术公司
制造商所在国:
美国
使用方式:
暂无
卫星简介
星链(Starlink)计划是由太空探索技术公司(SpaceX)提出的一个巨型低轨卫星互联网星座项目,计划在2019年至2024年间在太空搭建由约1.2万颗卫星组成的“星链”网络,其中1584颗将部署在地球上空550千米处的近地轨道,并从2020年开始工作。该卫星仍在工作。
2D轨道图
3D轨道图
轨道高度分析图
轨道倾角分析图
轨道综合分析图
查看轨道综合分析图
交会数据列表
事件ID 空间交会对象 最接近时刻(TCA) 交会距离 交会风险概率(CRP) 交会风险指数(CRI) 操作
CDM_260904-172805-369106-436621
2026-09-04T
17:28:34+0000
1.260 km
极远距离
1.235014E-5 中风险 0.57
CDM_260903-035705-284405-369122
2026-09-03T
03:57:52+0000
2.773 km
极远距离
1.481589E-6 低风险 0.38
CDM_260903-102305-369106-417121
2026-09-03T
10:23:24+0000
2.734 km
极远距离
1.465904E-6 低风险 0.38
CDM_260904-204505-369106-032921
2026-09-04T
20:45:39+0000
2.884 km
极远距离
1.395954E-6 低风险 0.38
CDM_260903-093405-247305-369122
2026-09-03T
09:34:48+0000
2.949 km
极远距离
1.342374E-6 低风险 0.38
CDM_260903-144004-835805-369121
2026-09-03T
14:40:26+0000
2.980 km
极远距离
1.277708E-6 低风险 0.37
CDM_260905-010604-837405-369121
2026-09-05T
01:06:53+0000
2.955 km
极远距离
1.234059E-6 低风险 0.37
CDM_260903-224005-369106-041122
2026-09-03T
22:40:34+0000
2.802 km
极远距离
8.639568E-7 极低风险 0.34
CDM_260904-015505-369106-372121
2026-09-04T
01:55:29+0000
2.966 km
极远距离
8.166374E-7 极低风险 0.33